Regional Weather Roundup
Issued by NWS Midland/Odessa, TX

Home | Current Version | Previous Version | Text Only | Print | Product List | Glossary On
Versions: 1 2 3 4 5 6 7 8 9 10 11 12 13 14 15 16 17 18 19 20 21 22 23 24 25 26 27 28 29 30 31 32 33 34 35 36 37 38 39 40 41 42 43 44 45 46 47 48 49 50
000
ASUS44 KMAF 260110
RWRMAF
MIDLAND AREA WEATHER ROUNDUP
NATIONAL WEATHER SERVICE MIDLAND TX
700 PM CST TUE NOV 25 2014

...IN SOUTHWEST TEXAS AND SOUTHEAST NEW MEXICO...

CITY           SKY/WX    TMP DP  RH WIND       PRES   REMARKS
ALPINE         PTCLDY    46   6  19 W9G16     30.32R
ANDREWS        FAIR      46  13  26 SW12      30.15F
ARTESIA        NOT AVBL
BIG SPRING     PTCLDY    46  18  32 S9        30.18F
CARLSBAD       CLEAR     53   7  15 W21G29    30.15R
DRYDEN           N/A     52  15  23 SW7       30.20S
FORT STOCKTON  PTCLDY    44  17  33 SW8       30.22R WCI  39
GUAD PASS      NOT AVBL
HOBBS          CLEAR     41  10  28 SW8       30.15F WCI  36
MARFA          PTCLDY    39   7  26 SW6       30.31R WCI  35
MIDLAND AIRPK  PTCLDY    50  16  25 SW8       30.18S
MIDLAND INTL   CLEAR     49  14  24 SW10      30.17S
ODESSA         PTCLDY    47  13  25 S9        30.18S
PECOS          PTCLDY    48  11  22 SW8       30.21R
PRESIDIO       FAIR      53  14  21 CALM      30.28S
SEMINOLE       CLEAR     44  14  30 SW10      30.14F WCI  38
SNYDER         PTCLDY    46  22  39 SW9       30.14F
WINK           PTCLDY    50   9  19 SW12      30.17R
$$
...OTHER STATIONS IN TEXAS...

CITY           SKY/WX    TMP DP  RH WIND       PRES   REMARKS
ABILENE        CLEAR     48  21  34 S7        30.16R
AMARILLO       PTCLDY    41  11  29 SW7       29.98S WCI  36
AUSTIN         PTCLDY    44  36  73 SW3       30.21S
BROWNSVILLE    CLEAR     54  44  69 NE5       30.29S
CORPUS CHRISTI CLEAR     55  41  59 SE8       30.26S
DALLAS FTW     PTCLDY    53  27  36 SW8       30.16S
DEL RIO        PTCLDY    52  32  46 S5        30.22S
EL PASO        CLEAR     50   7  17 SW10      30.28F
HOUSTON INT    PTCLDY    50  35  56 CALM      30.24R
LUBBOCK        PTCLDY    49  13  23 SW20      30.04F
SAN ANGELO     PTCLDY    47  19  33 SW9       30.20R
SAN ANTONIO    PTCLDY    59  30  33 SW7       30.23R
WACO           PTCLDY    45  34  65 SW5       30.20R
WICHITA FALLS  NOT AVBL
$$
...OTHER LOCATIONS IN NEW MEXICO...

CITY           SKY/WX    TMP DP  RH WIND       PRES   REMARKS
ALAMAGORDO     PTCLDY    45   1  16 MISG      30.29S
ALBUQUERQUE    PTCLDY    46   2  16 N12       30.26S
CANNON AFB     PTCLDY    49   8  19 W21       30.03F
CLOVIS         PTCLDY    48   9  20 W14G23    30.02S
HOLLOMAN AFB   PTCLDY    42   4  20 NE6       30.28R WCI  38
ROSWELL        PTCLDY    48   7  18 CALM      30.14R
RUIDOSO        CLEAR     39   1  20 NW15G26   30.23S WCI  31
SANTA FE       PTCLDY    30   6  36 NW8       30.21S WCI  22
TRUTH OR CONSE PTCLDY    49  -1  12 S10       30.26S
TUCUMCARI      CLEAR     50  13  22 W21G30    29.98R
$$



USA.gov is the U.S. government's official web portal to all federal, state and local government web resources and services.